Aérodrome :
LOGIN :

S'inscrire | Disclaimer

   EN    FR    IT 

 










Légende :    VFR   VFR Marginal   IFR   IFR Intensif   IFR Très Intensif
Visi : 
Plafond : 
>= 8 km
>= 3000ft
5 à 8 km
1000 à 3000 ft
1500m à 5 km
500 à 1000 ft
800 à 1500m
200 à 500 ft
< 800m
< 200 ft
Symboles :   Orages  Brouillard  Fortes neiges  Fortes précipitations  Vent > 20 kt
SIGMETs :   Divers  Orages  Givrage  Turbulence  Onde Orograph.  Cendres Volcan.







- Altitude de l'aérodrome : 294 ft
- Code IATA : NAP


LIRN - Naples Capodichino

DERNIER METAR :
  • 240020Z VRB02KT CAVOK 25/22 Q1014 NOSIG

METARs EXPIRÉS :
  • 232350Z VRB01KT CAVOK 26/24 Q1014 NOSIG
  • 232320Z VRB01KT CAVOK 26/24 Q1014 NOSIG
  • 232250Z 25004KT CAVOK 26/24 Q1015 NOSIG
  • 232220Z 24004KT 200V260 CAVOK 26/23 Q1014 NOSIG
  • 232150Z 00000KT CAVOK 26/22 Q1014 NOSIG

TAF TAF LIRN
Valide du 24 à 00h jusqu'au 25 à 00h UTC


232300Z 2400/2424 VRB04KT CAVOK
BECMG 2408/2410 20012KT
BECMG 2418/2420 VRB04KT
Pas de NOTAMs connus pour ce terrain.



MET'MAP, la Météo Aéronautique d'un coup d'oeil ! - Copyright ORBIFLY Décembre 2007 - Disclaimer

ORBIFLY MET'MAP TEAM :

Programmation & Développement : Alexandra Zaïnal
Conception & Développement : Baudouin d'Aumeries
Co-Programmation & Développement : Marc-Olivier Méhu
Soutien technique & logistique : Manuel Goepfert

Contact : metmap@orbifly.com




SOURCES & CREDITS :

   NOAA